Wetterdaten: Montag, 30.03.2015
Datum Zeit Auen-Temp. Temp gefhlt Luftfeuchte Luftdruck Regen Wind Richtung Richtung Taupunkt Windben
30.03.2015 00:00 6,9 C 6,2 C 80 % 1005,6 hPa 0,0 mm 6,0 km/h (2 Bft) SW 225 3,7 C 5,3 km/h (1 Bft)
30.03.2015 00:05 6,9 C 6,2 C 80 % 1005,4 hPa 0,0 mm 5,5 km/h (1 Bft) SW 225 3,7 C 5,1 km/h (1 Bft)
30.03.2015 00:10 6,9 C 6,2 C 80 % 1005,4 hPa 0,0 mm 5,6 km/h (1 Bft) W-SW 247 3,7 C 10,1 km/h (2 Bft)
30.03.2015 00:15 7,0 C 6,2 C 80 % 1005,4 hPa 0,0 mm 6,6 km/h (2 Bft) W 270 3,8 C 12,9 km/h (3 Bft)
30.03.2015 00:20 7,0 C 6,1 C 80 % 1005,4 hPa 0,0 mm 7,2 km/h (2 Bft) W-NW 292 3,8 C 10,8 km/h (2 Bft)
30.03.2015 00:25 7,0 C 6,3 C 79 % 1005,4 hPa 0,0 mm 7,7 km/h (2 Bft) SW 225 3,6 C 19,3 km/h (3 Bft)
30.03.2015 00:30 6,9 C 6,0 C 79 % 1005,4 hPa 0,0 mm 7,6 km/h (2 Bft) NW 315 3,5 C 12,2 km/h (2 Bft)
30.03.2015 00:35 6,9 C 6,1 C 79 % 1005,4 hPa 0,0 mm 6,3 km/h (2 Bft) NO 45 3,5 C 7,9 km/h (2 Bft)
30.03.2015 00:40 6,9 C 6,1 C 79 % 1005,4 hPa 0,0 mm 6,0 km/h (2 Bft) W-SW 247 3,5 C 6,1 km/h (2 Bft)
30.03.2015 00:45 6,9 C 6,1 C 79 % 1005,4 hPa 0,0 mm 6,1 km/h (2 Bft) W-NW 292 3,5 C 7,4 km/h (2 Bft)
30.03.2015 00:50 6,9 C 6,1 C 79 % 1005,4 hPa 0,0 mm 6,4 km/h (2 Bft) W-SW 247 3,5 C 7,4 km/h (2 Bft)
30.03.2015 00:55 6,8 C 6,0 C 80 % 1005,4 hPa 0,0 mm 6,3 km/h (2 Bft) W-SW 247 3,6 C 5,8 km/h (2 Bft)
30.03.2015 01:00 6,8 C 6,1 C 80 % 1005,4 hPa 0,0 mm 6,0 km/h (2 Bft) SW 225 3,6 C 5,3 km/h (1 Bft)
30.03.2015 01:05 6,8 C 6,1 C 80 % 1005,3 hPa 0,0 mm 5,8 km/h (2 Bft) W 270 3,6 C 7,4 km/h (2 Bft)
30.03.2015 01:10 6,8 C 6,0 C 80 % 1005,3 hPa 0,0 mm 6,4 km/h (2 Bft) W 270 3,6 C 7,9 km/h (2 Bft)
30.03.2015 01:15 6,7 C 6,0 C 80 % 1005,3 hPa 0,7 mm 6,1 km/h (2 Bft) W-SW 247 3,5 C 5,0 km/h (1 Bft)
30.03.2015 01:20 6,7 C 6,0 C 80 % 1005,3 hPa 0,0 mm 5,6 km/h (1 Bft) W-SW 247 3,5 C 8,4 km/h (2 Bft)
30.03.2015 01:25 6,7 C 6,0 C 80 % 1005,2 hPa 0,0 mm 6,0 km/h (2 Bft) S 180 3,5 C 8,4 km/h (2 Bft)
30.03.2015 01:30 6,7 C 6,0 C 80 % 1005,2 hPa 0,0 mm 5,6 km/h (1 Bft) SW 225 3,5 C 3,7 km/h (1 Bft)
30.03.2015 01:35 6,8 C 6,0 C 80 % 1005,2 hPa 0,0 mm 6,9 km/h (2 Bft) W-NW 292 3,6 C 16,7 km/h (3 Bft)
30.03.2015 01:40 6,9 C 6,0 C 80 % 1005,2 hPa 0,0 mm 7,6 km/h (2 Bft) W-SW 247 3,7 C 10,6 km/h (2 Bft)
30.03.2015 01:45 6,9 C 6,0 C 80 % 1005,0 hPa 0,0 mm 7,2 km/h (2 Bft) W 270 3,7 C 10,6 km/h (2 Bft)
30.03.2015 01:50 7,0 C 6,1 C 79 % 1005,0 hPa 0,0 mm 7,4 km/h (2 Bft) W 270 3,6 C 11,7 km/h (2 Bft)
30.03.2015 01:55 6,9 C 6,1 C 79 % 1005,0 hPa 0,0 mm 7,2 km/h (2 Bft) W-SW 247 3,5 C 10,1 km/h (2 Bft)
30.03.2015 02:00 6,9 C 6,3 C 79 % 1005,0 hPa 0,0 mm 5,8 km/h (2 Bft) NW 315 3,5 C 4,8 km/h (1 Bft)
30.03.2015 02:05 7,0 C 6,3 C 78 % 1004,5 hPa 0,0 mm 6,4 km/h (2 Bft) SW 225 3,4 C 7,7 km/h (2 Bft)
30.03.2015 02:10 7,0 C 6,4 C 78 % 1004,5 hPa 0,0 mm 6,1 km/h (2 Bft) W-SW 247 3,4 C 5,0 km/h (1 Bft)
30.03.2015 02:15 7,0 C 6,4 C 78 % 1004,5 hPa 0,0 mm 5,5 km/h (1 Bft) S 180 3,4 C 9,7 km/h (2 Bft)
30.03.2015 02:20 7,2 C 6,5 C 78 % 1004,5 hPa 0,0 mm 6,6 km/h (2 Bft) SW 225 3,6 C 7,9 km/h (2 Bft)
30.03.2015 02:25 7,2 C 6,6 C 77 % 1004,1 hPa 0,0 mm 7,7 km/h (2 Bft) SW 225 3,4 C 21,4 km/h (4 Bft)
30.03.2015 02:30 7,2 C 6,6 C 76 % 1004,1 hPa 0,0 mm 7,7 km/h (2 Bft) W-SW 247 3,3 C 8,9 km/h (2 Bft)
30.03.2015 02:35 7,4 C 6,7 C 76 % 1004,1 hPa 0,0 mm 7,6 km/h (2 Bft) W 270 3,5 C 22,0 km/h (4 Bft)
30.03.2015 02:40 7,3 C 6,6 C 75 % 1004,1 hPa 0,0 mm 7,6 km/h (2 Bft) W 270 3,2 C 21,7 km/h (4 Bft)
30.03.2015 02:45 7,2 C 6,6 C 75 % 1003,8 hPa 0,0 mm 6,8 km/h (2 Bft) W-SW 247 3,1 C 10,0 km/h (2 Bft)
30.03.2015 02:50 7,2 C 6,7 C 75 % 1003,8 hPa 0,0 mm 6,0 km/h (2 Bft) SW 225 3,1 C 7,2 km/h (2 Bft)
30.03.2015 02:55 7,4 C 6,9 C 74 % 1003,8 hPa 0,0 mm 6,6 km/h (2 Bft) W-SW 247 3,1 C 8,0 km/h (2 Bft)
30.03.2015 03:00 7,4 C 6,8 C 74 % 1003,8 hPa 0,0 mm 7,4 km/h (2 Bft) W 270 3,1 C 10,9 km/h (2 Bft)
30.03.2015 03:05 7,4 C 6,8 C 74 % 1003,8 hPa 0,0 mm 7,1 km/h (2 Bft) NW 315 3,1 C 4,8 km/h (1 Bft)
30.03.2015 03:10 7,5 C 6,9 C 73 % 1003,8 hPa 0,0 mm 7,9 km/h (2 Bft) SW 225 3,0 C 13,8 km/h (3 Bft)
30.03.2015 03:15 7,5 C 6,7 C 73 % 1003,8 hPa 0,0 mm 8,0 km/h (2 Bft) SW 225 3,0 C 10,8 km/h (2 Bft)
30.03.2015 03:20 7,5 C 6,7 C 72 % 1003,8 hPa 0,0 mm 7,9 km/h (2 Bft) SW 225 2,8 C 12,4 km/h (3 Bft)
30.03.2015 03:25 7,7 C 6,9 C 71 % 1003,4 hPa 0,0 mm 9,5 km/h (2 Bft) NW 315 2,8 C 34,3 km/h (5 Bft)
30.03.2015 03:30 7,9 C 7,2 C 70 % 1003,4 hPa 0,0 mm 10,9 km/h (2 Bft) W 270 2,8 C 9,7 km/h (2 Bft)
30.03.2015 03:35 7,8 C 7,2 C 70 % 1003,4 hPa 0,0 mm 9,7 km/h (2 Bft) W-NW 292 2,7 C 8,5 km/h (2 Bft)
30.03.2015 03:40 7,8 C 7,3 C 70 % 1003,4 hPa 0,0 mm 9,2 km/h (2 Bft) W-SW 247 2,7 C 11,9 km/h (2 Bft)
30.03.2015 03:45 8,0 C 7,4 C 69 % 1003,2 hPa 0,0 mm 10,8 km/h (2 Bft) NW 315 2,7 C 17,2 km/h (3 Bft)
30.03.2015 03:50 8,0 C 7,2 C 69 % 1003,2 hPa 0,0 mm 11,7 km/h (2 Bft) W-SW 247 2,7 C 21,1 km/h (4 Bft)
30.03.2015 03:55 8,0 C 7,5 C 69 % 1003,2 hPa 0,0 mm 10,6 km/h (2 Bft) W 270 2,7 C 8,2 km/h (2 Bft)
30.03.2015 04:00 7,9 C 7,4 C 70 % 1003,2 hPa 0,0 mm 10,1 km/h (2 Bft) W-SW 247 2,8 C 7,1 km/h (2 Bft)
30.03.2015 04:05 7,7 C 7,2 C 70 % 1003,2 hPa 0,0 mm 9,0 km/h (2 Bft) W 270 2,6 C 12,6 km/h (3 Bft)
30.03.2015 04:10 7,6 C 7,0 C 71 % 1003,2 hPa 0,0 mm 8,5 km/h (2 Bft) W 270 2,7 C 12,4 km/h (3 Bft)
30.03.2015 04:15 7,5 C 6,8 C 72 % 1003,2 hPa 0,0 mm 8,5 km/h (2 Bft) W-SW 247 2,8 C 15,1 km/h (3 Bft)
30.03.2015 04:20 7,5 C 6,7 C 72 % 1003,2 hPa 0,0 mm 9,2 km/h (2 Bft) W 270 2,8 C 10,0 km/h (2 Bft)
30.03.2015 04:25 7,3 C 6,6 C 73 % 1003,2 hPa 0,0 mm 8,0 km/h (2 Bft) W 270 2,8 C 5,0 km/h (1 Bft)
30.03.2015 04:30 7,2 C 6,4 C 73 % 1003,2 hPa 0,0 mm 7,1 km/h (2 Bft) W 270 2,7 C 9,3 km/h (2 Bft)
30.03.2015 04:35 7,1 C 6,3 C 74 % 1003,2 hPa 0,0 mm 6,9 km/h (2 Bft) W-NW 292 2,8 C 8,9 km/h (2 Bft)
30.03.2015 04:40 7,2 C 6,5 C 74 % 1003,2 hPa 0,0 mm 7,7 km/h (2 Bft) SW 225 2,9 C 13,2 km/h (3 Bft)
30.03.2015 04:45 7,1 C 6,3 C 74 % 1002,8 hPa 0,0 mm 7,4 km/h (2 Bft) SW 225 2,8 C 6,1 km/h (2 Bft)
30.03.2015 04:50 7,1 C 6,3 C 74 % 1002,8 hPa 0,0 mm 6,9 km/h (2 Bft) W-SW 247 2,8 C 11,3 km/h (2 Bft)
30.03.2015 04:55 7,3 C 6,4 C 74 % 1002,8 hPa 0,0 mm 8,2 km/h (2 Bft) W 270 3,0 C 8,2 km/h (2 Bft)
30.03.2015 05:00 7,3 C 6,7 C 73 % 1002,8 hPa 0,0 mm 9,2 km/h (2 Bft) SW 225 2,8 C 12,1 km/h (2 Bft)
30.03.2015 05:05 7,3 C 6,7 C 73 % 1003,0 hPa 0,0 mm 8,2 km/h (2 Bft) W-SW 247 2,8 C 10,0 km/h (2 Bft)
30.03.2015 05:10 7,3 C 6,7 C 73 % 1003,0 hPa 0,0 mm 8,2 km/h (2 Bft) W 270 2,8 C 6,9 km/h (2 Bft)
30.03.2015 05:15 7,3 C 6,6 C 73 % 1003,0 hPa 0,0 mm 8,4 km/h (2 Bft) SW 225 2,8 C 16,9 km/h (3 Bft)
30.03.2015 05:20 7,3 C 6,4 C 73 % 1003,0 hPa 0,0 mm 8,2 km/h (2 Bft) W-SW 247 2,8 C 8,5 km/h (2 Bft)
30.03.2015 05:25 7,2 C 6,4 C 73 % 1002,9 hPa 0,0 mm 7,7 km/h (2 Bft) S 180 2,7 C 11,6 km/h (2 Bft)
30.03.2015 05:30 7,2 C 6,5 C 73 % 1002,9 hPa 0,0 mm 6,6 km/h (2 Bft) SW 225 2,7 C 6,0 km/h (2 Bft)
30.03.2015 05:35 7,3 C 6,6 C 73 % 1002,9 hPa 0,0 mm 8,4 km/h (2 Bft) NW 315 2,8 C 8,5 km/h (2 Bft)
30.03.2015 05:40 7,2 C 6,5 C 73 % 1002,9 hPa 0,0 mm 8,5 km/h (2 Bft) SW 225 2,7 C 10,1 km/h (2 Bft)
30.03.2015 05:45 7,3 C 6,6 C 73 % 1002,7 hPa 0,0 mm 8,2 km/h (2 Bft) W-NW 292 2,8 C 14,5 km/h (3 Bft)
30.03.2015 05:50 7,3 C 6,6 C 72 % 1002,7 hPa 0,0 mm 8,4 km/h (2 Bft) W 270 2,6 C 11,3 km/h (2 Bft)
30.03.2015 05:55 7,3 C 6,7 C 73 % 1002,7 hPa 0,0 mm 8,2 km/h (2 Bft) W-SW 247 2,8 C 6,4 km/h (2 Bft)
30.03.2015 06:00 7,4 C 6,8 C 72 % 1002,7 hPa 0,0 mm 8,9 km/h (2 Bft) W-SW 247 2,7 C 13,7 km/h (3 Bft)
30.03.2015 06:05 7,3 C 6,5 C 72 % 1002,6 hPa 0,0 mm 8,9 km/h (2 Bft) W-SW 247 2,6 C 9,8 km/h (2 Bft)
30.03.2015 06:10 7,3 C 6,8 C 72 % 1002,6 hPa 0,0 mm 8,5 km/h (2 Bft) SW 225 2,6 C 7,7 km/h (2 Bft)
30.03.2015 06:15 7,4 C 6,7 C 71 % 1002,6 hPa 0,0 mm 9,0 km/h (2 Bft) W-NW 292 2,5 C 16,6 km/h (3 Bft)
30.03.2015 06:20 7,5 C 7,0 C 71 % 1002,6 hPa 0,0 mm 9,5 km/h (2 Bft) W 270 2,6 C 8,2 km/h (2 Bft)
30.03.2015 06:25 7,5 C 7,0 C 70 % 1002,6 hPa 0,0 mm 9,7 km/h (2 Bft) NW 315 2,4 C 10,5 km/h (2 Bft)
30.03.2015 06:30 7,5 C 7,0 C 70 % 1002,6 hPa 0,0 mm 9,2 km/h (2 Bft) W-NW 292 2,4 C 13,5 km/h (3 Bft)
30.03.2015 06:35 7,6 C 7,1 C 70 % 1002,6 hPa 0,0 mm 9,7 km/h (2 Bft) SW 225 2,5 C 12,4 km/h (3 Bft)
30.03.2015 06:40 7,6 C 7,1 C 70 % 1002,6 hPa 0,0 mm 9,7 km/h (2 Bft) SW 225 2,5 C 10,1 km/h (2 Bft)
30.03.2015 06:45 7,6 C 7,2 C 70 % 1002,6 hPa 0,0 mm 9,2 km/h (2 Bft) W-SW 247 2,5 C 13,8 km/h (3 Bft)
30.03.2015 06:50 7,6 C 7,1 C 70 % 1002,6 hPa 0,0 mm 9,3 km/h (2 Bft) W 270 2,5 C 10,0 km/h (2 Bft)
30.03.2015 06:55 7,5 C 6,9 C 70 % 1002,6 hPa 0,0 mm 10,0 km/h (2 Bft) SW 225 2,4 C 7,7 km/h (2 Bft)
30.03.2015 07:00 7,6 C 6,9 C 70 % 1002,6 hPa 0,0 mm 10,1 km/h (2 Bft) W 270 2,5 C 18,2 km/h (3 Bft)
30.03.2015 07:05 7,5 C 6,7 C 70 % 1002,8 hPa 0,0 mm 11,1 km/h (2 Bft) W 270 2,4 C 9,8 km/h (2 Bft)
30.03.2015 07:10 7,4 C 6,4 C 70 % 1002,8 hPa 0,0 mm 10,6 km/h (2 Bft) W-SW 247 2,3 C 13,8 km/h (3 Bft)
30.03.2015 07:15 7,4 C 6,6 C 70 % 1002,8 hPa 0,0 mm 10,0 km/h (2 Bft) W-SW 247 2,3 C 11,4 km/h (2 Bft)
30.03.2015 07:20 7,4 C 6,7 C 70 % 1002,8 hPa 0,0 mm 9,5 km/h (2 Bft) W-SW 247 2,3 C 11,9 km/h (2 Bft)
30.03.2015 07:25 7,5 C 6,8 C 70 % 1002,4 hPa 0,0 mm 9,5 km/h (2 Bft) W 270 2,4 C 15,9 km/h (3 Bft)
30.03.2015 07:30 7,6 C 6,7 C 70 % 1002,4 hPa 0,0 mm 10,9 km/h (2 Bft) W-NW 292 2,5 C 13,0 km/h (3 Bft)
30.03.2015 07:35 7,7 C 7,1 C 69 % 1002,4 hPa 0,0 mm 10,6 km/h (2 Bft) W 270 2,4 C 14,2 km/h (3 Bft)
30.03.2015 07:40 7,8 C 7,3 C 69 % 1002,4 hPa 0,0 mm 10,8 km/h (2 Bft) W 270 2,5 C 16,9 km/h (3 Bft)
30.03.2015 07:45 7,9 C 7,4 C 68 % 1002,5 hPa 0,0 mm 10,9 km/h (2 Bft) W 270 2,4 C 16,3 km/h (3 Bft)
30.03.2015 07:50 7,9 C 7,5 C 68 % 1002,5 hPa 0,0 mm 10,6 km/h (2 Bft) W-SW 247 2,4 C 8,0 km/h (2 Bft)
30.03.2015 07:55 8,1 C 7,7 C 68 % 1002,5 hPa 0,0 mm 10,9 km/h (2 Bft) O-SO 112 2,6 C 16,4 km/h (3 Bft)
30.03.2015 08:00 8,3 C 7,8 C 67 % 1002,5 hPa 0,0 mm 12,4 km/h (3 Bft) W-SW 247 2,5 C 17,5 km/h (3 Bft)
30.03.2015 08:05 8,3 C 7,9 C 67 % 1002,7 hPa 0,0 mm 13,0 km/h (3 Bft) W-NW 292 2,5 C 19,2 km/h (3 Bft)
30.03.2015 08:10 8,3 C 7,9 C 67 % 1002,7 hPa 0,0 mm 12,2 km/h (2 Bft) W 270 2,5 C 17,2 km/h (3 Bft)
30.03.2015 08:15 8,4 C 8,1 C 67 % 1002,7 hPa 0,0 mm 13,5 km/h (3 Bft) W 270 2,6 C 17,5 km/h (3 Bft)
30.03.2015 08:20 8,6 C 8,2 C 67 % 1002,7 hPa 0,0 mm 12,9 km/h (3 Bft) W 270 2,8 C 8,7 km/h (2 Bft)
30.03.2015 08:25 8,7 C 8,4 C 67 % 1002,6 hPa 0,0 mm 12,6 km/h (3 Bft) W 270 2,9 C 14,5 km/h (3 Bft)
30.03.2015 08:30 8,9 C 8,8 C 67 % 1002,6 hPa 0,0 mm 11,9 km/h (2 Bft) W-SW 247 3,1 C 15,0 km/h (3 Bft)
30.03.2015 08:35 9,1 C 9,9 C 66 % 1002,6 hPa 0,0 mm 11,4 km/h (2 Bft) W 270 3,1 C 11,6 km/h (2 Bft)
30.03.2015 08:40 9,2 C 11,1 C 66 % 1002,6 hPa 0,0 mm 12,2 km/h (2 Bft) W-SW 247 3,2 C 17,1 km/h (3 Bft)
30.03.2015 08:45 9,2 C 10,8 C 66 % 1002,7 hPa 0,0 mm 12,7 km/h (3 Bft) S 180 3,2 C 31,4 km/h (5 Bft)
30.03.2015 08:50 9,2 C 10,1 C 66 % 1002,7 hPa 0,0 mm 12,6 km/h (3 Bft) W 270 3,2 C 19,0 km/h (3 Bft)
30.03.2015 08:55 9,2 C 9,5 C 66 % 1002,7 hPa 0,0 mm 12,4 km/h (3 Bft) SO 135 3,2 C 11,9 km/h (2 Bft)
30.03.2015 09:00 9,2 C 9,3 C 66 % 1002,7 hPa 0,0 mm 11,9 km/h (2 Bft) NW 315 3,2 C 15,6 km/h (3 Bft)
30.03.2015 09:05 9,2 C 9,3 C 66 % 1002,9 hPa 0,0 mm 12,1 km/h (2 Bft) NW 315 3,2 C 19,5 km/h (3 Bft)
30.03.2015 09:10 9,2 C 9,1 C 66 % 1002,9 hPa 0,0 mm 11,6 km/h (2 Bft) W-SW 247 3,2 C 13,2 km/h (3 Bft)
30.03.2015 09:15 9,2 C 8,9 C 66 % 1002,9 hPa 0,0 mm 10,3 km/h (2 Bft) W 270 3,2 C 12,9 km/h (3 Bft)
30.03.2015 09:20 9,2 C 8,9 C 66 % 1002,9 hPa 0,0 mm 9,7 km/h (2 Bft) W 270 3,2 C 15,9 km/h (3 Bft)
30.03.2015 09:25 9,0 C 8,7 C 67 % 1003,8 hPa 0,0 mm 12,1 km/h (2 Bft) NW 315 3,2 C 9,3 km/h (2 Bft)
30.03.2015 09:30 8,9 C 8,4 C 68 % 1003,8 hPa 0,0 mm 13,5 km/h (3 Bft) W-SW 247 3,3 C 22,7 km/h (4 Bft)
30.03.2015 09:35 7,9 C 7,4 C 73 % 1003,8 hPa 0,0 mm 13,5 km/h (3 Bft) W 270 3,4 C 15,4 km/h (3 Bft)
30.03.2015 09:40 7,1 C 6,6 C 75 % 1003,8 hPa 0,0 mm 13,2 km/h (3 Bft) W-SW 247 3,0 C 17,9 km/h (3 Bft)
30.03.2015 09:45 6,4 C 5,8 C 77 % 1004,3 hPa 0,0 mm 13,2 km/h (3 Bft) NW 315 2,7 C 23,3 km/h (4 Bft)
30.03.2015 09:50 6,1 C 5,4 C 78 % 1004,3 hPa 0,0 mm 13,0 km/h (3 Bft) W 270 2,6 C 22,5 km/h (4 Bft)
30.03.2015 09:55 5,9 C 4,7 C 80 % 1004,3 hPa 0,7 mm 14,5 km/h (3 Bft) N-NW 337 2,7 C 26,9 km/h (4 Bft)
30.03.2015 10:00 5,7 C 4,8 C 82 % 1004,3 hPa 0,0 mm 17,4 km/h (3 Bft) W 270 2,9 C 27,7 km/h (4 Bft)
30.03.2015 10:05 5,7 C 4,3 C 83 % 1004,9 hPa 0,0 mm 17,2 km/h (3 Bft) W-SW 247 3,0 C 36,9 km/h (5 Bft)
30.03.2015 10:10 5,7 C 4,7 C 83 % 1004,9 hPa 0,0 mm 18,3 km/h (3 Bft) W-SW 247 3,0 C 37,3 km/h (5 Bft)
30.03.2015 10:15 5,7 C 4,7 C 84 % 1004,9 hPa 0,0 mm 15,9 km/h (3 Bft) W 270 3,2 C 11,9 km/h (2 Bft)
30.03.2015 10:20 5,7 C 4,8 C 84 % 1004,9 hPa 0,0 mm 13,5 km/h (3 Bft) W 270 3,2 C 10,8 km/h (2 Bft)
30.03.2015 10:25 5,7 C 4,9 C 85 % 1005,0 hPa 0,0 mm 11,6 km/h (2 Bft) W 270 3,4 C 17,5 km/h (3 Bft)
30.03.2015 10:30 5,7 C 4,6 C 85 % 1005,0 hPa 0,7 mm 10,9 km/h (2 Bft) W-SW 247 3,4 C 10,8 km/h (2 Bft)
30.03.2015 10:35 5,7 C 4,9 C 85 % 1005,0 hPa 0,0 mm 10,3 km/h (2 Bft) W-SW 247 3,4 C 12,6 km/h (3 Bft)
30.03.2015 10:40 5,7 C 5,0 C 86 % 1005,0 hPa 0,7 mm 8,9 km/h (2 Bft) W-SW 247 3,5 C 11,7 km/h (2 Bft)
30.03.2015 10:45 5,7 C 5,1 C 86 % 1005,1 hPa 0,0 mm 9,7 km/h (2 Bft) NW 315 3,5 C 10,5 km/h (2 Bft)
30.03.2015 10:50 5,7 C 5,0 C 86 % 1005,1 hPa 0,0 mm 9,8 km/h (2 Bft) W-SW 247 3,5 C 10,6 km/h (2 Bft)
30.03.2015 10:55 5,7 C 4,8 C 86 % 1005,1 hPa 0,0 mm 10,0 km/h (2 Bft) W 270 3,5 C 14,6 km/h (3 Bft)
30.03.2015 11:00 5,8 C 5,1 C 86 % 1005,1 hPa 0,7 mm 11,7 km/h (2 Bft) S 180 3,6 C 18,8 km/h (3 Bft)
30.03.2015 11:05 5,8 C 4,7 C 86 % 1005,1 hPa 0,0 mm 11,7 km/h (2 Bft) W 270 3,6 C 15,8 km/h (3 Bft)
30.03.2015 11:10 5,7 C 5,0 C 86 % 1005,1 hPa 0,0 mm 10,3 km/h (2 Bft) S 180 3,5 C 15,4 km/h (3 Bft)
30.03.2015 11:15 5,8 C 5,1 C 86 % 1005,1 hPa 0,0 mm 9,7 km/h (2 Bft) W-SW 247 3,6 C 25,1 km/h (4 Bft)
30.03.2015 11:20 5,9 C 5,2 C 87 % 1005,1 hPa 0,7 mm 9,8 km/h (2 Bft) S 180 3,9 C 11,3 km/h (2 Bft)
30.03.2015 11:25 5,9 C 5,3 C 87 % 1005,5 hPa 0,0 mm 9,7 km/h (2 Bft) S 180 3,9 C 11,3 km/h (2 Bft)
30.03.2015 11:30 6,0 C 5,4 C 86 % 1005,5 hPa 0,0 mm 8,5 km/h (2 Bft) W 270 3,8 C 7,4 km/h (2 Bft)
30.03.2015 11:35 6,0 C 5,3 C 86 % 1005,5 hPa 0,0 mm 8,9 km/h (2 Bft) NW 315 3,8 C 10,6 km/h (2 Bft)
30.03.2015 11:40 6,0 C 5,5 C 86 % 1005,5 hPa 0,7 mm 8,0 km/h (2 Bft) W 270 3,8 C 6,1 km/h (2 Bft)
30.03.2015 11:45 6,0 C 5,3 C 86 % 1005,6 hPa 0,0 mm 8,2 km/h (2 Bft) W 270 3,8 C 17,4 km/h (3 Bft)
30.03.2015 11:50 6,0 C 5,4 C 82 % 1005,6 hPa 0,0 mm 8,5 km/h (2 Bft) W 270 3,2 C 7,4 km/h (2 Bft)
30.03.2015 11:55 6,0 C 5,6 C 82 % 1005,6 hPa 0,0 mm 9,7 km/h (2 Bft) SW 225 3,2 C 9,3 km/h (2 Bft)
30.03.2015 12:00 6,0 C 5,5 C 86 % 1005,6 hPa 0,7 mm 8,2 km/h (2 Bft) W 270 3,8 C 13,8 km/h (3 Bft)
30.03.2015 12:05 6,0 C 5,5 C 86 % 1005,4 hPa 0,0 mm 7,9 km/h (2 Bft) SW 225 3,8 C 9,3 km/h (2 Bft)
30.03.2015 12:10 6,0 C 5,5 C 86 % 1005,4 hPa 0,0 mm 8,5 km/h (2 Bft) W 270 3,8 C 17,2 km/h (3 Bft)
30.03.2015 12:15 6,0 C 5,3 C 86 % 1005,4 hPa 0,0 mm 8,7 km/h (2 Bft) NW 315 3,8 C 18,2 km/h (3 Bft)
30.03.2015 12:20 6,0 C 5,5 C 86 % 1005,4 hPa 0,0 mm 9,5 km/h (2 Bft) W-SW 247 3,8 C 7,7 km/h (2 Bft)
30.03.2015 12:25 6,0 C 5,4 C 86 % 1005,9 hPa 0,0 mm 9,5 km/h (2 Bft) W 270 3,8 C 5,6 km/h (1 Bft)
30.03.2015 12:30 6,0 C 5,4 C 87 % 1005,9 hPa 0,0 mm 9,5 km/h (2 Bft) W 270 4,0 C 12,2 km/h (2 Bft)
30.03.2015 12:35 6,1 C 5,4 C 87 % 1005,9 hPa 0,0 mm 10,3 km/h (2 Bft) SW 225 4,1 C 23,2 km/h (4 Bft)
30.03.2015 12:40 6,2 C 5,2 C 87 % 1005,9 hPa 0,0 mm 10,8 km/h (2 Bft) W 270 4,2 C 9,7 km/h (2 Bft)
30.03.2015 12:45 6,3 C 5,6 C 86 % 1006,0 hPa 0,0 mm 12,4 km/h (3 Bft) W 270 4,1 C 10,1 km/h (2 Bft)
30.03.2015 12:50 6,2 C 5,4 C 86 % 1006,0 hPa 0,0 mm 14,5 km/h (3 Bft) W 270 4,0 C 17,5 km/h (3 Bft)
30.03.2015 12:55 6,1 C 5,2 C 86 % 1006,0 hPa 0,0 mm 14,8 km/h (3 Bft) W-NW 292 3,9 C 23,2 km/h (4 Bft)
30.03.2015 13:00 5,5 C 4,7 C 85 % 1006,0 hPa 0,0 mm 14,2 km/h (3 Bft) W 270 3,2 C 15,6 km/h (3 Bft)
30.03.2015 13:05 5,4 C 4,6 C 85 % 1006,7 hPa 0,0 mm 13,4 km/h (3 Bft) W 270 3,1 C 17,4 km/h (3 Bft)
30.03.2015 13:10 5,3 C 4,5 C 85 % 1006,7 hPa 0,0 mm 12,6 km/h (3 Bft) NW 315 3,0 C 9,8 km/h (2 Bft)
30.03.2015 13:15 5,2 C 4,2 C 83 % 1006,7 hPa 0,7 mm 12,6 km/h (3 Bft) W-NW 292 2,6 C 17,1 km/h (3 Bft)
30.03.2015 13:20 5,2 C 4,4 C 85 % 1006,7 hPa 0,0 mm 13,0 km/h (3 Bft) SW 225 2,9 C 17,1 km/h (3 Bft)
30.03.2015 13:25 5,0 C 4,3 C 83 % 1006,9 hPa 0,0 mm 12,9 km/h (3 Bft) W-NW 292 2,4 C 11,1 km/h (2 Bft)
30.03.2015 13:30 5,1 C 4,4 C 83 % 1006,9 hPa 0,0 mm 11,3 km/h (2 Bft) N-NO 22 2,5 C 9,3 km/h (2 Bft)
30.03.2015 13:35 5,1 C 4,4 C 86 % 1006,9 hPa 0,0 mm 10,5 km/h (2 Bft) NW 315 3,0 C 13,0 km/h (3 Bft)
30.03.2015 13:40 5,1 C 4,4 C 86 % 1006,9 hPa 0,0 mm 12,1 km/h (2 Bft) W-SW 247 3,0 C 21,2 km/h (4 Bft)
30.03.2015 13:45 5,1 C 4,2 C 86 % 1007,5 hPa 0,0 mm 13,5 km/h (3 Bft) W 270 3,0 C 14,3 km/h (3 Bft)
30.03.2015 13:50 5,0 C 4,1 C 86 % 1007,5 hPa 0,0 mm 13,7 km/h (3 Bft) W 270 2,9 C 9,0 km/h (2 Bft)
30.03.2015 13:55 5,0 C 4,1 C 86 % 1007,5 hPa 0,7 mm 12,4 km/h (3 Bft) W-NW 292 2,9 C 12,9 km/h (3 Bft)
30.03.2015 14:00 4,9 C 4,2 C 83 % 1007,5 hPa 0,0 mm 11,3 km/h (2 Bft) W 270 2,3 C 11,4 km/h (2 Bft)
30.03.2015 14:05 4,9 C 4,2 C 83 % 1007,8 hPa 0,0 mm 11,1 km/h (2 Bft) NW 315 2,3 C 20,6 km/h (4 Bft)
30.03.2015 14:10 4,9 C 4,1 C 87 % 1007,8 hPa 0,0 mm 10,9 km/h (2 Bft) NW 315 2,9 C 12,9 km/h (3 Bft)
30.03.2015 14:15 4,9 C 3,8 C 87 % 1007,8 hPa 0,0 mm 11,3 km/h (2 Bft) W-NW 292 2,9 C 11,6 km/h (2 Bft)
30.03.2015 14:20 4,9 C 3,8 C 87 % 1007,8 hPa 0,7 mm 11,3 km/h (2 Bft) W 270 2,9 C 23,3 km/h (4 Bft)
30.03.2015 14:25 4,9 C 3,9 C 84 % 1007,8 hPa 0,0 mm 11,1 km/h (2 Bft) NW 315 2,4 C 15,1 km/h (3 Bft)
30.03.2015 14:30 5,0 C 4,2 C 86 % 1007,8 hPa 0,0 mm 10,6 km/h (2 Bft) W 270 2,9 C 15,1 km/h (3 Bft)
30.03.2015 14:35 5,0 C 4,0 C 87 % 1007,8 hPa 0,0 mm 10,1 km/h (2 Bft) SW 225 3,0 C 12,6 km/h (3 Bft)
30.03.2015 14:40 4,9 C 4,1 C 87 % 1007,8 hPa 0,0 mm 11,4 km/h (2 Bft) W 270 2,9 C 18,7 km/h (3 Bft)
30.03.2015 14:45 4,9 C 4,1 C 87 % 1007,8 hPa 0,0 mm 11,3 km/h (2 Bft) W-NW 292 2,9 C 12,9 km/h (3 Bft)
30.03.2015 14:50 4,8 C 4,0 C 87 % 1007,8 hPa 0,0 mm 11,6 km/h (2 Bft) W 270 2,8 C 13,5 km/h (3 Bft)
30.03.2015 14:55 4,7 C 3,6 C 87 % 1007,8 hPa 0,0 mm 10,9 km/h (2 Bft) W-NW 292 2,7 C 9,2 km/h (2 Bft)
30.03.2015 15:00 4,7 C 3,9 C 87 % 1007,8 hPa 0,0 mm 11,6 km/h (2 Bft) W 270 2,7 C 18,8 km/h (3 Bft)
30.03.2015 15:05 4,9 C 3,7 C 87 % 1008,2 hPa 0,0 mm 11,4 km/h (2 Bft) W-NW 292 2,9 C 11,6 km/h (2 Bft)
30.03.2015 15:10 5,0 C 4,2 C 83 % 1008,2 hPa 0,0 mm 11,4 km/h (2 Bft) NW 315 2,4 C 17,9 km/h (3 Bft)
30.03.2015 15:15 5,1 C 4,2 C 86 % 1008,2 hPa 0,0 mm 13,5 km/h (3 Bft) W 270 3,0 C 21,9 km/h (4 Bft)
30.03.2015 15:20 5,2 C 3,9 C 83 % 1008,2 hPa 0,7 mm 14,6 km/h (3 Bft) W 270 2,6 C 16,1 km/h (3 Bft)
30.03.2015 15:25 5,3 C 4,6 C 83 % 1008,5 hPa 0,0 mm 14,0 km/h (3 Bft) W 270 2,7 C 20,9 km/h (4 Bft)
30.03.2015 15:30 5,5 C 5,0 C 83 % 1008,5 hPa 0,0 mm 13,7 km/h (3 Bft) W-SW 247 2,8 C 15,6 km/h (3 Bft)
30.03.2015 15:35 5,7 C 5,3 C 82 % 1008,5 hPa 0,0 mm 13,5 km/h (3 Bft) W 270 2,9 C 25,4 km/h (4 Bft)
30.03.2015 15:40 5,8 C 5,6 C 82 % 1008,5 hPa 0,0 mm 12,2 km/h (2 Bft) W-SW 247 3,0 C 9,5 km/h (2 Bft)
30.03.2015 15:45 5,9 C 5,8 C 81 % 1008,8 hPa 0,0 mm 11,4 km/h (2 Bft) W-SW 247 2,9 C 15,9 km/h (3 Bft)
30.03.2015 15:50 6,0 C 5,9 C 80 % 1008,8 hPa 0,0 mm 10,8 km/h (2 Bft) SW 225 2,8 C 7,4 km/h (2 Bft)
30.03.2015 15:55 6,1 C 6,1 C 80 % 1008,8 hPa 0,0 mm 10,3 km/h (2 Bft) NW 315 2,9 C 10,8 km/h (2 Bft)
30.03.2015 16:00 6,1 C 6,1 C 80 % 1008,8 hPa 0,0 mm 9,2 km/h (2 Bft) SW 225 2,9 C 14,5 km/h (3 Bft)
30.03.2015 16:05 6,1 C 5,9 C 80 % 1008,9 hPa 0,0 mm 8,9 km/h (2 Bft) W-SW 247 2,9 C 10,9 km/h (2 Bft)
30.03.2015 16:10 6,2 C 6,3 C 80 % 1008,9 hPa 0,0 mm 7,7 km/h (2 Bft) NW 315 3,0 C 7,9 km/h (2 Bft)
30.03.2015 16:15 6,2 C 6,3 C 80 % 1008,9 hPa 0,0 mm 9,2 km/h (2 Bft) N-NW 337 3,0 C 20,6 km/h (4 Bft)
30.03.2015 16:20 6,4 C 6,3 C 79 % 1008,9 hPa 0,0 mm 11,6 km/h (2 Bft) W 270 3,0 C 13,4 km/h (3 Bft)
30.03.2015 16:25 6,5 C 6,5 C 79 % 1009,2 hPa 0,0 mm 11,9 km/h (2 Bft) W 270 3,1 C 11,6 km/h (2 Bft)
30.03.2015 16:30 6,6 C 6,5 C 78 % 1009,2 hPa 0,0 mm 11,3 km/h (2 Bft) W 270 3,0 C 15,4 km/h (3 Bft)
30.03.2015 16:35 6,3 C 6,1 C 77 % 1009,2 hPa 0,0 mm 12,2 km/h (2 Bft) W-NW 292 2,6 C 14,3 km/h (3 Bft)
30.03.2015 16:40 6,0 C 5,8 C 76 % 1009,2 hPa 0,0 mm 12,4 km/h (3 Bft) W-NW 292 2,1 C 8,4 km/h (2 Bft)
30.03.2015 16:45 5,8 C 5,5 C 76 % 1009,6 hPa 0,0 mm 11,7 km/h (2 Bft) NW 315 1,9 C 10,1 km/h (2 Bft)
30.03.2015 16:50 5,6 C 5,1 C 76 % 1009,6 hPa 0,0 mm 13,0 km/h (3 Bft) W-NW 292 1,7 C 13,5 km/h (3 Bft)
30.03.2015 16:55 5,6 C 5,0 C 76 % 1009,6 hPa 0,0 mm 12,7 km/h (3 Bft) W 270 1,7 C 9,5 km/h (2 Bft)
30.03.2015 17:00 5,7 C 5,1 C 76 % 1009,6 hPa 0,0 mm 13,2 km/h (3 Bft) NW 315 1,8 C 9,8 km/h (2 Bft)
30.03.2015 17:05 5,8 C 5,2 C 76 % 1009,8 hPa 0,0 mm 12,2 km/h (2 Bft) W 270 1,9 C 14,5 km/h (3 Bft)
30.03.2015 17:10 5,8 C 5,4 C 76 % 1009,8 hPa 0,0 mm 10,9 km/h (2 Bft) W-SW 247 1,9 C 18,2 km/h (3 Bft)
30.03.2015 17:15 5,7 C 5,3 C 76 % 1009,8 hPa 0,0 mm 13,4 km/h (3 Bft) W 270 1,8 C 23,8 km/h (4 Bft)
30.03.2015 17:20 5,7 C 4,9 C 76 % 1009,8 hPa 0,0 mm 13,5 km/h (3 Bft) W-SW 247 1,8 C 18,0 km/h (3 Bft)
30.03.2015 17:25 5,8 C 5,5 C 76 % 1010,1 hPa 0,0 mm 12,2 km/h (2 Bft) N-NO 22 1,9 C 12,4 km/h (3 Bft)
30.03.2015 17:30 5,9 C 5,7 C 76 % 1010,1 hPa 0,0 mm 12,9 km/h (3 Bft) W 270 2,0 C 10,8 km/h (2 Bft)
30.03.2015 17:35 6,0 C 5,5 C 74 % 1010,1 hPa 0,0 mm 12,7 km/h (3 Bft) W 270 1,7 C 11,4 km/h (2 Bft)
30.03.2015 17:40 6,0 C 5,7 C 73 % 1010,1 hPa 0,0 mm 12,2 km/h (2 Bft) W 270 1,5 C 16,6 km/h (3 Bft)
30.03.2015 17:45 5,8 C 5,5 C 72 % 1010,5 hPa 0,0 mm 12,4 km/h (3 Bft) W-SW 247 1,2 C 18,0 km/h (3 Bft)
30.03.2015 17:50 5,8 C 5,3 C 73 % 1010,5 hPa 0,0 mm 14,8 km/h (3 Bft) W-SW 247 1,3 C 21,7 km/h (4 Bft)
30.03.2015 17:55 5,8 C 5,2 C 72 % 1010,5 hPa 0,0 mm 15,3 km/h (3 Bft) W 270 1,2 C 6,9 km/h (2 Bft)
30.03.2015 18:00 5,8 C 5,3 C 72 % 1010,5 hPa 0,0 mm 12,4 km/h (3 Bft) W-NW 292 1,2 C 10,5 km/h (2 Bft)
30.03.2015 18:05 5,7 C 5,3 C 72 % 1010,9 hPa 0,0 mm 9,7 km/h (2 Bft) W-SW 247 1,1 C 12,1 km/h (2 Bft)
30.03.2015 18:10 5,7 C 5,3 C 72 % 1010,9 hPa 0,0 mm 9,3 km/h (2 Bft) W 270 1,1 C 12,6 km/h (3 Bft)
30.03.2015 18:15 5,7 C 5,3 C 72 % 1010,9 hPa 0,0 mm 10,8 km/h (2 Bft) W 270 1,1 C 17,2 km/h (3 Bft)
30.03.2015 18:20 5,6 C 5,1 C 72 % 1010,9 hPa 0,0 mm 11,1 km/h (2 Bft) NW 315 1,0 C 13,5 km/h (3 Bft)
30.03.2015 18:25 5,6 C 5,2 C 72 % 1011,0 hPa 0,0 mm 9,7 km/h (2 Bft) W-NW 292 1,0 C 10,1 km/h (2 Bft)
30.03.2015 18:30 5,6 C 5,0 C 72 % 1011,0 hPa 0,0 mm 8,7 km/h (2 Bft) W-SW 247 1,0 C 13,2 km/h (3 Bft)
30.03.2015 18:35 5,6 C 5,1 C 71 % 1011,0 hPa 0,0 mm 10,3 km/h (2 Bft) W 270 0,8 C 21,6 km/h (4 Bft)
30.03.2015 18:40 5,5 C 5,0 C 71 % 1011,0 hPa 0,0 mm 10,8 km/h (2 Bft) W-SW 247 0,7 C 15,8 km/h (3 Bft)
30.03.2015 18:45 5,5 C 5,0 C 70 % 1011,3 hPa 0,0 mm 10,1 km/h (2 Bft) W-SW 247 0,5 C 7,7 km/h (2 Bft)
30.03.2015 18:50 5,6 C 4,8 C 70 % 1011,3 hPa 0,0 mm 10,3 km/h (2 Bft) W-NW 292 0,6 C 9,3 km/h (2 Bft)
30.03.2015 18:55 5,6 C 5,1 C 70 % 1011,3 hPa 0,0 mm 9,0 km/h (2 Bft) W 270 0,6 C 9,8 km/h (2 Bft)
30.03.2015 19:00 5,5 C 5,0 C 70 % 1011,3 hPa 0,0 mm 7,2 km/h (2 Bft) W 270 0,5 C 14,0 km/h (3 Bft)
30.03.2015 19:05 5,5 C 5,0 C 70 % 1011,4 hPa 0,0 mm 7,1 km/h (2 Bft) W-NW 292 0,5 C 6,4 km/h (2 Bft)
30.03.2015 19:10 5,4 C 4,9 C 71 % 1011,4 hPa 0,0 mm 7,4 km/h (2 Bft) W-SW 247 0,6 C 10,8 km/h (2 Bft)
30.03.2015 19:15 5,4 C 4,9 C 71 % 1011,4 hPa 0,0 mm 7,2 km/h (2 Bft) W 270 0,6 C 6,4 km/h (2 Bft)
30.03.2015 19:20 5,3 C 4,8 C 72 % 1011,4 hPa 0,0 mm 6,4 km/h (2 Bft) SW 225 0,7 C 13,7 km/h (3 Bft)
30.03.2015 19:25 5,3 C 4,9 C 72 % 1011,9 hPa 0,0 mm 6,0 km/h (2 Bft) W-SW 247 0,7 C 5,5 km/h (1 Bft)
30.03.2015 19:30 5,2 C 4,8 C 72 % 1011,9 hPa 0,0 mm 6,3 km/h (2 Bft) S-SO 157 0,6 C 4,5 km/h (1 Bft)
30.03.2015 19:35 5,2 C 4,9 C 73 % 1011,9 hPa 0,0 mm 5,3 km/h (1 Bft) W-SW 247 0,8 C 4,7 km/h (1 Bft)
30.03.2015 19:40 5,1 C 4,9 C 73 % 1011,9 hPa 0,0 mm 4,5 km/h (1 Bft) W 270 0,7 C 2,9 km/h (1 Bft)
30.03.2015 19:45 5,1 C 4,8 C 74 % 1011,7 hPa 0,0 mm 4,7 km/h (1 Bft) W 270 0,9 C 9,5 km/h (2 Bft)
30.03.2015 19:50 5,1 C 4,7 C 74 % 1011,7 hPa 0,0 mm 5,1 km/h (1 Bft) W 270 0,9 C 14,6 km/h (3 Bft)
30.03.2015 19:55 5,3 C 4,9 C 73 % 1011,7 hPa 0,0 mm 7,9 km/h (2 Bft) W-NW 292 0,9 C 14,8 km/h (3 Bft)
30.03.2015 20:00 5,3 C 4,8 C 72 % 1011,7 hPa 0,0 mm 10,1 km/h (2 Bft) W-SW 247 0,7 C 11,9 km/h (2 Bft)
30.03.2015 20:05 5,3 C 4,5 C 72 % 1012,4 hPa 0,0 mm 9,8 km/h (2 Bft) W 270 0,7 C 9,7 km/h (2 Bft)
30.03.2015 20:10 5,1 C 4,6 C 71 % 1012,4 hPa 0,0 mm 7,9 km/h (2 Bft) W-NW 292 0,3 C 14,0 km/h (3 Bft)
30.03.2015 20:15 5,2 C 4,7 C 71 % 1012,4 hPa 0,0 mm 8,2 km/h (2 Bft) W 270 0,4 C 7,4 km/h (2 Bft)
30.03.2015 20:20 5,1 C 4,6 C 70 % 1012,4 hPa 0,0 mm 7,9 km/h (2 Bft) W 270 0,1 C 6,9 km/h (2 Bft)
30.03.2015 20:25 5,1 C 4,4 C 70 % 1013,1 hPa 0,0 mm 7,2 km/h (2 Bft) S-SW 202 0,1 C 15,3 km/h (3 Bft)
30.03.2015 20:30 5,1 C 4,6 C 69 % 1013,1 hPa 0,0 mm 7,9 km/h (2 Bft) W 270 -0,1 C 7,1 km/h (2 Bft)
30.03.2015 20:35 5,2 C 4,6 C 69 % 1013,1 hPa 0,0 mm 9,5 km/h (2 Bft) W-NW 292 -0,0 C 13,4 km/h (3 Bft)
30.03.2015 20:40 5,2 C 4,6 C 68 % 1013,1 hPa 0,0 mm 10,0 km/h (2 Bft) W 270 -0,2 C 14,3 km/h (3 Bft)
30.03.2015 20:45 5,1 C 4,5 C 68 % 1013,5 hPa 0,0 mm 9,5 km/h (2 Bft) W-NW 292 -0,3 C 16,3 km/h (3 Bft)
30.03.2015 20:50 5,1 C 4,6 C 68 % 1013,5 hPa 0,0 mm 8,5 km/h (2 Bft) W 270 -0,3 C 12,7 km/h (3 Bft)
30.03.2015 20:55 5,1 C 4,6 C 68 % 1013,5 hPa 0,0 mm 8,0 km/h (2 Bft) W 270 -0,3 C 3,7 km/h (1 Bft)
30.03.2015 21:00 5,1 C 4,5 C 68 % 1013,5 hPa 0,0 mm 7,1 km/h (2 Bft) W-SW 247 -0,3 C 5,0 km/h (1 Bft)
30.03.2015 21:05 5,1 C 4,5 C 68 % 1013,6 hPa 0,0 mm 7,2 km/h (2 Bft) SW 225 -0,3 C 6,1 km/h (2 Bft)
30.03.2015 21:10 5,1 C 4,5 C 68 % 1013,6 hPa 0,0 mm 7,1 km/h (2 Bft) W-SW 247 -0,3 C 9,0 km/h (2 Bft)
30.03.2015 21:15 5,2 C 4,6 C 67 % 1013,6 hPa 0,0 mm 7,4 km/h (2 Bft) W-SW 247 -0,4 C 11,1 km/h (2 Bft)
30.03.2015 21:20 5,1 C 4,6 C 67 % 1013,6 hPa 0,0 mm 9,2 km/h (2 Bft) NW 315 -0,5 C 10,3 km/h (2 Bft)
30.03.2015 21:25 5,0 C 4,3 C 67 % 1014,0 hPa 0,0 mm 9,0 km/h (2 Bft) W 270 -0,6 C 5,6 km/h (1 Bft)
30.03.2015 21:30 5,0 C 4,3 C 67 % 1014,0 hPa 0,0 mm 8,0 km/h (2 Bft) W-NW 292 -0,6 C 7,2 km/h (2 Bft)
30.03.2015 21:35 5,0 C 4,3 C 67 % 1014,0 hPa 0,0 mm 8,0 km/h (2 Bft) W 270 -0,6 C 7,1 km/h (2 Bft)
30.03.2015 21:40 4,8 C 4,1 C 67 % 1014,0 hPa 0,0 mm 7,4 km/h (2 Bft) W-SW 247 -0,8 C 8,4 km/h (2 Bft)
30.03.2015 21:45 4,8 C 4,1 C 67 % 1013,9 hPa 0,0 mm 6,8 km/h (2 Bft) W-SW 247 -0,8 C 12,2 km/h (2 Bft)
30.03.2015 21:50 4,9 C 4,1 C 68 % 1013,9 hPa 0,0 mm 7,2 km/h (2 Bft) W-SW 247 -0,5 C 8,0 km/h (2 Bft)
30.03.2015 21:55 4,8 C 4,1 C 68 % 1013,9 hPa 0,0 mm 7,2 km/h (2 Bft) W-SW 247 -0,6 C 6,6 km/h (2 Bft)
30.03.2015 22:00 4,8 C 4,2 C 68 % 1013,9 hPa 0,0 mm 6,3 km/h (2 Bft) O 90 -0,6 C 9,3 km/h (2 Bft)
30.03.2015 22:05 4,7 C 4,1 C 69 % 1013,9 hPa 0,0 mm 6,4 km/h (2 Bft) W 270 -0,5 C 5,5 km/h (1 Bft)
30.03.2015 22:10 4,7 C 4,0 C 70 % 1013,9 hPa 0,0 mm 6,8 km/h (2 Bft) W-SW 247 -0,3 C 6,0 km/h (2 Bft)
30.03.2015 22:15 4,7 C 4,0 C 71 % 1013,9 hPa 0,0 mm 6,9 km/h (2 Bft) W-SW 247 -0,1 C 6,9 km/h (2 Bft)
30.03.2015 22:20 4,6 C 4,1 C 72 % 1013,9 hPa 0,0 mm 6,0 km/h (2 Bft) W 270 -0,0 C 8,5 km/h (2 Bft)
30.03.2015 22:25 4,6 C 4,2 C 72 % 1014,1 hPa 0,0 mm 5,0 km/h (1 Bft) W 270 -0,0 C 4,3 km/h (1 Bft)
30.03.2015 22:30 4,8 C 4,2 C 74 % 1014,1 hPa 0,0 mm 6,0 km/h (2 Bft) W-NW 292 0,6 C 12,1 km/h (2 Bft)
30.03.2015 22:35 4,9 C 4,3 C 74 % 1014,1 hPa 0,0 mm 6,4 km/h (2 Bft) W-NW 292 0,7 C 7,4 km/h (2 Bft)
30.03.2015 22:40 4,9 C 4,4 C 74 % 1014,1 hPa 0,0 mm 6,1 km/h (2 Bft) W 270 0,7 C 4,3 km/h (1 Bft)
30.03.2015 22:45 5,1 C 4,5 C 73 % 1014,2 hPa 0,0 mm 6,3 km/h (2 Bft) SW 225 0,7 C 5,5 km/h (1 Bft)
30.03.2015 22:50 5,0 C 4,4 C 73 % 1014,2 hPa 0,0 mm 6,3 km/h (2 Bft) W 270 0,6 C 11,1 km/h (2 Bft)
30.03.2015 22:55 5,0 C 4,6 C 73 % 1014,2 hPa 0,0 mm 5,1 km/h (1 Bft) W 270 0,6 C 8,0 km/h (2 Bft)
30.03.2015 23:00 5,1 C 4,6 C 73 % 1014,2 hPa 0,0 mm 6,3 km/h (2 Bft) SW 225 0,7 C 10,8 km/h (2 Bft)
30.03.2015 23:05 5,2 C 4,7 C 72 % 1014,3 hPa 0,0 mm 7,9 km/h (2 Bft) SW 225 0,6 C 15,1 km/h (3 Bft)
30.03.2015 23:10 5,1 C 4,5 C 72 % 1014,3 hPa 0,0 mm 6,9 km/h (2 Bft) W-SW 247 0,5 C 4,2 km/h (1 Bft)
30.03.2015 23:15 5,2 C 4,6 C 71 % 1014,3 hPa 0,0 mm 6,9 km/h (2 Bft) W 270 0,4 C 13,8 km/h (3 Bft)
30.03.2015 23:20 5,2 C 4,8 C 70 % 1014,3 hPa 0,0 mm 8,0 km/h (2 Bft) W-SW 247 0,2 C 6,6 km/h (2 Bft)
30.03.2015 23:25 5,2 C 4,8 C 70 % 1014,2 hPa 0,0 mm 7,9 km/h (2 Bft) NW 315 0,2 C 15,4 km/h (3 Bft)
30.03.2015 23:30 5,3 C 4,6 C 69 % 1014,2 hPa 0,0 mm 8,4 km/h (2 Bft) W 270 0,1 C 19,0 km/h (3 Bft)
30.03.2015 23:35 5,3 C 4,6 C 69 % 1014,2 hPa 0,0 mm 8,9 km/h (2 Bft) W-NW 292 0,1 C 10,0 km/h (2 Bft)
30.03.2015 23:40 5,3 C 4,6 C 68 % 1014,2 hPa 0,0 mm 8,4 km/h (2 Bft) SW 225 -0,1 C 5,8 km/h (2 Bft)
30.03.2015 23:45 5,3 C 4,6 C 68 % 1014,2 hPa 0,0 mm 8,4 km/h (2 Bft) N-NW 337 -0,1 C 16,6 km/h (3 Bft)
30.03.2015 23:50 5,3 C 4,7 C 68 % 1014,2 hPa 0,0 mm 7,4 km/h (2 Bft) W-SW 247 -0,1 C 6,8 km/h (2 Bft)
30.03.2015 23:55 5,3 C 4,8 C 68 % 1014,2 hPa 0,0 mm 6,9 km/h (2 Bft) W-SW 247 -0,1 C 8,0 km/h (2 Bft)
_ Min-Zeit 22:25 14:55 09:20 07:40 - 19:40 - - 21:45 19:40
Minimum _ 4,6 C 3,6 C 66 % 1002,4 hPa - 4,5 km/h (1 Bft) - - -0,8 C 2,9 km/h (1 Bft)
_ Max-Zeit 09:20 08:40 15:05 23:20 15:20 10:10 - - 12:40 10:10
Maximum _ 9,2 C 11,1 C 87 % 1014,3 hPa 0,7 mm 18,3 km/h
W-SW (3 Bft)
- - 4,2 C 37,3 km/h
W-SW (5 Bft)
Durchschnitt _ 6,3 C 5,7 C 76 % 1007,2 hPa #8,2 mm 9,6 km/h (2 Bft) W - 2,3 C 12,5 km/h (3 Bft)